Погода в Пхохане

Южная Корея     35°59′56″N   129°22′01″E
темп.,
°C
ветер,
м/с
пор.,
м/с
влажн.,
%
обл.,
%
осадки,
мм/ч
давл.,
гПа
погр.,
м
23 апреля, пт
пт2300:00+15св3959100 0.0 1020381
03:00+14св4965100 0.0 1019469
06:00+14ссв3867100 0.0 1020487
09:00+15св4766100 0.0 1022822
12:00+17св795296 0.0 1021839
15:00+17всв81055100 0.0 10201012
18:00+14св6116885 0.0 1021860
21:00+13св51069100 0.0 1023701
24 апреля, сб
сб2400:00+13св496999 0.0 1022729
03:00+12св387351 0.0 1022482
06:00+11ссв2778100 0.0 1022277
09:00+15св555997 0.0 1023917
12:00+17всв555171 0.0 1022974
15:00+17всв4450100 0.0 1020865
18:00+15всв346140 0.0 1020502
21:00+11вюв007673 0.0 102028
25 апреля, вс
вс2500:00+10зсз11799 0.0 101917
03:00+11зюз227296 0.0 101842
06:00+13св5970100 0.0 1020966
09:00+14св79619 0.0 10221158
12:00+15св79525 0.0 10221218
15:00+15св79455 0.0 10211163
18:00+12св69590 0.0 1022976
21:00+11всв49550 0.0 1024491
26 апреля, пн
пн2600:00+8св11635 0.0 102438
03:00+6сз11722 0.0 102412
06:00+6зсз11726 0.0 102414
09:00+14в13485 0.0 1024885
12:00+16в4439100 0.0 10231271
15:00+16в4338100 0.0 10221190
18:00+14вюв33500 0.0 1022428
21:00+10вюв116694 0.0 102346
27 апреля, вт
вт2700:00+8юз1172100 0.0 102330
03:00+8зюз1172100 0.0 102228
06:00+8з1166100 0.0 102125
09:00+14юз2345100 0.0 1020400
12:00+20юз352499 0.0 10191563
15:00+22юз5828100 0.0 10161929
18:00+18юз5956100 0.0 1017815
21:00+14юз2379100 0.0 101788